Temperature
1 1 0 -1 -2 -3 -4 -5 -5 -6 -6 -6 -6 -6 -6 -6 -6 -6 -6 -6 -6 -5 -5 -5 -5 -5 -5 -4 -4 -4 -3 -3 -2 -2 -2 -2 -1 -1
1 0 -0 -2 -3 -4 -5 -6 -6 -6 -7 -6 -6 -6 -6 -6 -6 -6 -6 -6 -6 -6 -6 -6 -6 -6 -5 -5 -5 -4 -4 -4 -3 -3 -3 -2 -2 -2
0 -1 -2 -3 -5 -6 -7 -7 -7 -7 -7 -7 -6 -6 -6 -6 -6 -6 -7 -7 -7 -7 -7 -7 -7 -6 -6 -6 -5 -5 -5 -4 -4 -4 -3 -3 -3 -2
-1 -2 -3 -5 -6 -7 -7 -8 -8 -7 -7 -7 -7 -7 -7 -6 -7 -7 -7 -7 -7 -8 -8 -8 -7 -7 -7 -6 -6 -6 -6 -5 -5 -4 -4 -4 -4 -3
-2 -4 -5 -6 -6 -7 -8 -8 -8 -8 -8 -8 -7 -7 -7 -7 -7 -8 -8 -8 -9 -9 -9 -9 -8 -8 -7 -7 -7 -7 -6 -6 -6 -6 -5 -5 -5 -4
-4 -5 -6 -6 -7 -8 -8 -8 -8 -8 -7 -8 -8 -7 -8 -8 -8 -8 -9 -9 -9 -9 -9 -9 -9 -9 -9 -8 -8 -8 -7 -7 -7 -6 -6 -6 -5 -5
-5 -6 -7 -8 -8 -8 -8 -8 -8 -8 -7 -7 -8 -8 -8 -8 -9 -9 -9 -9 -9 -10 -10 -10 -10 -10 -10 -9 -9 -9 -9 -8 -7 -7 -7 -6 -6 -5
-6 -7 -8 -8 -8 -8 -8 -8 -8 -8 -8 -8 -9 -9 -9 -9 -9 -9 -10 -10 -10 -10 -10 -10 -10 -10 -10 -9 -9 -9 -8 -8 -7 -7 -7 -6 -6 -6
-7 -8 -8 -8 -8 -8 -8 -8 -8 -8 -9 -9 -9 -10 -10 -9 -9 -10 -10 -10 -10 -10 -10 -10 -10 -10 -10 -9 -10 -10 -9 -8 -8 -7 -7 -7 -6 -6
-8 -8 -8 -8 -9 -9 -8 -8 -8 -8 -9 -9 -9 -9 -9 -10 -10 -10 -10 -10 -10 -10 -11 -11 -10 -11 -10 -10 -10 -10 -9 -8 -8 -8 -7 -7 -6 -6
-8 -8 -9 -9 -9 -8 -8 -9 -9 -9 -9 -9 -10 -10 -10 -10 -10 -10 -10 -11 -11 -11 -11 -11 -11 -11 -11 -10 -10 -10 -9 -9 -8 -8 -7 -7 -7 -7
-8 -9 -9 -9 -9 -9 -9 -10 -10 -9 -9 -10 -10 -9 -9 -9 -10 -10 -11 -11 -12 -11 -10 -11 -11 -11 -11 -10 -10 -9 -9 -8 -9 -8 -8 -8 -7 -7
-9 -9 -9 -10 -9 -10 -10 -10 -10 -10 -10 -10 -10 -9 -9 -9 -9 -9 -10 -11 -11 -11 -10 -11 -11 -10 -11 -10 -9 -8 -8 -7 -7 -6 -6 -6 -7 -7
-9 -9 -10 -10 -10 -11 -11 -11 -10 -11 -11 -11 -11 -11 -10 -9 -9 -9 -9 -9 -10 -10 -9 -9 -10 -10 -10 -10 -9 -7 -7 -6 -6 -5 -5 -5 -5 -5
-9 -10 -10 -11 -10 -10 -10 -11 -11 -11 -11 -12 -12 -10 -10 -9 -9 -9 -9 -9 -9 -9 -9 -9 -9 -9 -9 -9 -9 -7 -7 -6 -5 -5 -5 -5 -5 -4
-10 -10 -10 -10 -10 -10 -10 -10 -10 -11 -12 -12 -11 -10 -10 -9 -9 -9 -9 -9 -9 -8 -8 -8 -8 -8 -7 -6 -6 -6 -6 -7 -5 -4 -4 -5 -4 -4
-10 -11 -10 -10 -10 -10 -10 -10 -11 -11 -11 -10 -10 -10 -9 -9 -9 -9 -10 -9 -10 -9 -8 -7 -7 -7 -6 -5 -5 -6 -6 -6 -5 -5 -4 -5 -4 -4
-11 -11 -11 -11 -11 -11 -11 -11 -11 -10 -10 -10 -10 -9 -9 -10 -10 -9 -9 -9 -10 -9 -9 -8 -7 -6 -5 -4 -5 -6 -6 -6 -5 -5 -5 -5 -4 -3
-11 -11 -12 -12 -11 -11 -11 -11 -11 -10 -10 -10 -9 -9 -9 -9 -9 -9 -9 -9 -9 -9 -9 -8 -8 -8 -8 -7 -5 -5 -6 -6 -6 -6 -5 -5 -5 -3
-11 -12 -12 -12 -11 -11 -11 -11 -10 -10 -9 -9 -9 -9 -9 -9 -9 -9 -9 -9 -9 -9 -8 -8 -7 -8 -8 -7 -7 -5 -5 -5 -6 -6 -5 -5 -4 -2
-12 -12 -11 -11 -11 -11 -11 -10 -10 -9 -9 -8 -8 -8 -9 -9 -9 -8 -8 -8 -9 -9 -8 -8 -7 -7 -7 -6 -6 -5 -5 -5 -5 -6 -6 -5 -5 -3
-12 -12 -11 -11 -11 -11 -10 -10 -9 -8 -8 -8 -8 -8 -8 -8 -8 -8 -8 -8 -8 -8 -8 -8 -7 -7 -7 -7 -6 -6 -5 -5 -5 -5 -5 -5 -5 -5
-12 -11 -11 -11 -10 -10 -10 -9 -8 -8 -8 -8 -8 -8 -8 -8 -8 -8 -7 -8 -8 -8 -8 -7 -7 -7 -7 -7 -6 -6 -5 -4 -4 -5 -5 -5 -5 -4
Wind_Speed
3 3 3 4 4 4 5 6 7 10 11 7 5 8 6 11 17 17 13 21 28 32 34 33 33 36 40 40 40 41 42 42 43 42 41 42 41 40
3 4 5 4 5 5 5 6 7 10 12 11 13 10 9 8 17 18 17 26 29 32 32 33 36 39 40 40 40 39 38 37 38 39 40 40 40 41
6 6 7 7 6 6 6 6 7 9 15 18 14 11 13 11 10 11 14 14 16 28 34 35 36 37 38 39 37 36 35 35 35 36 36 37 38 39
8 7 8 8 7 7 7 9 10 10 11 18 17 13 14 13 11 11 10 12 11 25 31 34 35 35 35 33 32 34 35 35 35 35 35 34 34 36
7 8 8 9 8 8 10 10 10 10 9 13 16 15 13 10 11 12 12 11 11 20 27 29 30 32 31 32 34 34 34 33 33 34 33 33 34 34
7 8 8 8 10 11 10 10 9 10 11 12 14 13 10 10 10 12 12 12 12 12 17 20 25 28 31 32 33 33 33 33 33 33 34 34 34 35
8 8 9 13 17 15 14 13 13 13 13 11 12 10 11 12 13 13 16 15 13 10 11 11 12 13 17 24 27 30 31 32 32 32 33 34 34 36
9 9 10 13 15 21 26 26 23 17 13 11 12 14 14 14 14 13 15 15 16 7 10 13 12 13 13 13 25 32 33 34 34 33 33 34 35 35
10 10 10 11 15 14 22 25 16 20 20 16 15 16 16 16 16 15 14 15 16 13 13 16 13 14 14 16 30 33 34 35 34 34 33 34 34 35
11 11 11 12 13 19 16 12 10 10 14 14 13 15 15 15 15 16 17 16 16 13 11 17 16 15 15 15 29 33 33 33 32 32 33 32 32 32
10 10 11 12 20 27 18 13 11 11 17 20 19 22 27 27 21 14 12 14 17 16 13 13 16 16 16 14 15 26 29 31 32 32 32 31 32 32
8 8 13 17 25 27 18 13 12 15 13 10 13 17 17 18 22 14 12 14 16 14 11 10 14 13 11 9 8 10 15 24 29 30 30 29 29 19
7 7 8 20 26 27 22 12 16 17 12 12 12 12 12 11 12 12 11 12 15 14 16 15 12 12 10 11 12 10 10 12 14 17 22 25 27 23
8 8 10 23 26 24 18 19 24 19 11 11 12 12 11 12 13 14 14 14 15 18 20 19 13 14 14 16 13 13 12 11 10 10 10 16 21 27
10 16 19 23 20 15 19 22 17 10 10 11 12 12 11 12 13 13 14 14 15 15 15 15 14 14 13 14 12 15 14 11 9 10 11 10 12 13
11 10 16 18 15 15 14 13 10 11 12 11 12 13 13 11 12 12 13 14 14 13 11 12 12 13 13 15 13 13 14 10 10 12 12 11 11 12
14 7 8 9 10 10 10 10 10 11 11 11 12 13 13 13 13 12 12 13 12 13 14 13 11 11 12 13 10 12 14 14 14 14 14 11 10 10
12 8 9 10 10 11 12 12 12 12 11 11 11 11 12 13 14 13 12 11 12 13 12 12 13 12 9 5 7 8 12 15 17 16 15 14 11 13
8 8 9 10 10 11 11 11 12 12 12 11 11 12 12 12 13 13 12 11 11 12 11 10 10 10 13 12 7 9 13 17 18 15 16 14 12 14
8 9 9 10 11 11 11 11 12 12 11 11 11 12 12 11 12 12 11 12 12 11 11 10 9 9 10 9 7 9 19 17 16 17 18 12 11 15
9 9 10 10 11 11 11 11 12 13 13 12 11 12 11 11 11 11 12 16 14 11 11 11 11 14 9 7 7 8 13 20 21 17 19 15 14 16
10 10 10 11 11 11 12 12 12 13 12 11 12 12 11 11 11 12 12 11 10 9 9 10 10 8 4 4 7 9 10 12 17 21 26 24 14 12
10 11 11 11 12 11 11 12 13 12 12 12 12 12 11 11 11 11 11 10 9 8 8 7 6 4 3 3 6 6 9 11 10 11 14 25 27 24
Wind_Direction
293 272 242 246 237 248 257 269 286 303 308 298 297 300 285 287 288 293 291 291 293 295 295 295 296 296 294 292 291 288 283 279 277 275 274 271 269 267
290 272 260 237 244 255 256 260 258 275 288 299 300 290 281 272 282 287 284 286 289 290 289 291 292 293 291 290 287 283 282 281 278 275 270 269 267 264
307 291 278 263 251 255 260 263 262 265 281 294 298 296 290 288 285 279 272 269 279 286 287 289 290 289 287 286 285 286 286 285 283 279 275 272 270 268
306 303 293 287 266 265 273 272 267 264 274 290 298 301 297 298 293 284 279 276 269 277 281 287 290 292 291 290 290 289 287 285 283 281 278 276 274 272
307 303 295 289 284 281 279 277 275 275 274 282 292 298 298 299 295 290 287 282 276 279 285 290 292 293 292 293 293 290 287 286 284 280 276 273 271 268
312 300 295 292 288 282 283 287 296 296 290 286 285 291 297 299 297 300 299 293 290 289 287 287 290 291 291 292 291 289 288 285 281 277 275 273 270 266
301 298 295 299 306 309 310 310 305 298 295 295 301 305 306 307 303 301 297 298 292 293 290 288 287 284 281 282 281 282 281 278 275 273 270 266 263 261
301 290 285 291 301 312 311 307 306 308 314 310 305 304 303 299 296 296 296 300 301 299 293 294 289 284 281 277 279 280 280 281 279 275 272 269 266 265
288 287 295 303 308 299 298 303 305 311 308 304 298 293 292 292 294 297 296 295 295 301 299 293 290 284 281 275 281 282 282 283 282 279 274 269 264 261
280 282 289 294 295 301 308 314 303 286 290 293 289 289 291 296 298 300 299 294 290 292 291 290 293 285 285 277 282 281 283 283 281 278 274 271 269 266
279 280 286 289 304 316 324 316 311 305 303 303 302 305 306 306 307 305 301 300 299 300 297 287 291 291 288 279 272 279 281 284 287 286 280 274 268 266
284 270 293 311 317 324 326 326 319 310 308 311 311 306 304 301 306 306 301 296 298 301 302 300 298 301 298 284 283 280 279 282 285 284 280 275 269 264
311 305 301 313 323 328 329 324 309 318 331 322 310 305 303 305 306 301 294 290 293 293 300 304 299 297 291 298 301 291 286 288 286 282 279 274 267 260
315 303 306 322 328 329 327 321 325 332 324 312 309 309 310 307 304 301 296 288 283 284 291 294 290 293 295 297 297 300 301 294 284 277 270 263 262 258
310 316 325 328 331 329 324 326 329 321 312 310 311 309 304 301 300 301 301 298 293 289 286 283 283 286 286 289 290 299 304 302 292 282 275 261 253 249
309 324 330 330 328 325 322 319 317 313 314 311 307 304 305 305 307 310 308 309 309 306 300 294 293 293 294 294 292 294 305 307 300 294 286 277 267 257
328 330 325 324 322 319 318 317 316 315 311 309 306 306 308 310 310 311 308 309 307 312 318 321 318 306 289 286 292 302 315 317 319 320 318 309 296 280
327 320 318 318 316 316 317 316 314 313 310 308 304 303 305 308 310 311 310 308 308 311 315 323 329 334 332 299 258 301 327 333 336 334 333 328 320 320
319 312 311 312 312 311 309 308 308 308 308 303 302 302 304 305 308 309 310 310 309 310 315 321 325 334 335 333 316 320 335 338 343 346 344 338 335 339
313 311 310 310 308 306 306 307 307 307 306 303 303 303 303 302 304 306 308 308 311 317 320 323 326 330 329 320 309 312 329 341 348 351 351 346 347 5
312 311 309 307 304 303 304 305 304 304 305 306 303 301 301 302 301 303 304 309 316 318 319 319 316 320 315 319 324 329 338 343 348 355 0 2 6 19
310 309 308 305 303 303 303 304 304 305 305 303 301 300 300 300 299 300 302 304 307 311 309 306 309 320 331 335 336 333 334 340 346 353 6 15 23 25
310 308 306 303 301 300 300 300 300 300 300 299 298 298 299 299 300 299 298 300 307 312 314 311 317 326 313 321 334 336 342 344 346 352 3 8 18 34
Height
1470 1467 1463 1460 1457 1454 1450 1445 1439 1424 1410 1409 1408 1405 1403 1400 1398 1395 1391 1387 1383 1378 1372 1367 1363 1359 1355 1350 1346 1343 1340 1338 1337 1335 1334 1334 1334 1334
1466 1462 1459 1455 1451 1448 1444 1441 1436 1428 1413 1406 1402 1399 1395 1393 1390 1386 1382 1379 1374 1368 1362 1358 1353 1347 1342 1337 1333 1329 1326 1323 1322 1321 1320 1319 1320 1320
1461 1458 1454 1450 1446 1442 1438 1434 1429 1424 1413 1400 1398 1393 1389 1386 1381 1377 1372 1368 1362 1357 1352 1347 1342 1336 1330 1325 1320 1316 1313 1310 1309 1307 1306 1306 1306 1307
1456 1451 1448 1443 1439 1436 1432 1427 1422 1418 1411 1399 1391 1387 1382 1378 1372 1367 1361 1357 1351 1345 1340 1335 1330 1324 1318 1313 1309 1305 1301 1298 1297 1295 1294 1294 1293 1291
1450 1445 1440 1437 1432 1428 1424 1419 1415 1410 1405 1397 1387 1381 1375 1370 1363 1357 1352 1345 1338 1333 1329 1324 1318 1313 1308 1303 1299 1294 1290 1287 1284 1282 1281 1280 1280 1280
1444 1439 1435 1430 1426 1421 1417 1413 1409 1404 1398 1390 1382 1374 1368 1363 1358 1350 1341 1336 1328 1324 1317 1311 1308 1302 1297 1292 1287 1282 1278 1275 1272 1269 1268 1267 1267 1267
1437 1433 1429 1425 1421 1417 1413 1408 1402 1396 1390 1382 1376 1369 1364 1357 1351 1344 1335 1326 1319 1317 1308 1301 1296 1289 1282 1278 1273 1268 1265 1262 1259 1257 1255 1254 1253 1253
1432 1427 1423 1419 1414 1410 1406 1400 1396 1391 1385 1378 1370 1363 1357 1351 1345 1338 1330 1322 1310 1308 1302 1291 1287 1278 1271 1265 1260 1257 1254 1250 1247 1245 1243 1241 1240 1240
1426 1422 1417 1413 1408 1401 1395 1391 1387 1384 1380 1374 1364 1356 1351 1345 1339 1331 1324 1316 1307 1299 1294 1281 1275 1266 1260 1253 1248 1244 1241 1237 1234 1231 1229 1227 1227 1227
1422 1417 1411 1405 1399 1395 1389 1384 1379 1374 1370 1363 1358 1352 1347 1341 1334 1327 1318 1309 1299 1292 1287 1275 1266 1257 1249 1242 1236 1232 1228 1225 1221 1218 1216 1215 1214 1213
1416 1411 1406 1400 1395 1391 1385 1377 1369 1364 1360 1356 1351 1346 1340 1333 1327 1320 1311 1303 1291 1283 1278 1270 1258 1249 1240 1231 1226 1222 1218 1214 1209 1205 1202 1200 1199 1198
1410 1406 1402 1396 1390 1385 1379 1371 1363 1357 1352 1346 1341 1337 1331 1325 1320 1314 1306 1297 1288 1277 1270 1264 1254 1247 1234 1224 1219 1212 1206 1199 1195 1190 1187 1184 1183 1182
1405 1401 1396 1390 1385 1379 1373 1366 1360 1355 1348 1341 1335 1329 1323 1318 1313 1307 1301 1293 1284 1273 1266 1260 1250 1243 1236 1222 1210 1204 1198 1190 1183 1176 1171 1168 1166 1165
1401 1396 1391 1385 1379 1372 1366 1361 1357 1350 1343 1336 1330 1324 1319 1313 1307 1300 1293 1287 1279 1271 1262 1256 1248 1240 1231 1221 1208 1197 1191 1183 1174 1166 1161 1156 1152 1149
1398 1393 1386 1380 1373 1366 1361 1357 1351 1344 1337 1332 1327 1321 1315 1308 1301 1293 1286 1280 1272 1265 1258 1251 1244 1236 1229 1219 1207 1196 1186 1176 1169 1160 1153 1146 1140 1135
1392 1386 1381 1374 1368 1363 1357 1352 1346 1340 1335 1330 1323 1317 1311 1304 1297 1290 1281 1274 1265 1257 1253 1247 1241 1234 1224 1215 1207 1197 1186 1175 1164 1156 1147 1139 1131 1124
1387 1380 1374 1369 1363 1358 1353 1348 1342 1336 1331 1326 1319 1313 1307 1300 1293 1286 1279 1271 1264 1255 1246 1241 1237 1231 1223 1214 1205 1196 1185 1174 1164 1154 1143 1133 1123 1114
1382 1376 1370 1365 1360 1355 1349 1343 1338 1333 1327 1321 1316 1310 1303 1296 1289 1283 1276 1269 1262 1255 1247 1241 1234 1226 1219 1212 1206 1196 1187 1175 1163 1152 1142 1130 1117 1106
1377 1372 1368 1363 1358 1353 1347 1340 1334 1329 1324 1318 1312 1306 1300 1293 1287 1280 1274 1267 1260 1254 1248 1242 1236 1230 1222 1214 1207 1201 1191 1179 1167 1154 1143 1132 1122 1111
1374 1369 1364 1360 1355 1350 1344 1337 1331 1325 1320 1314 1309 1304 1297 1290 1284 1278 1272 1266 1260 1254 1247 1242 1237 1232 1227 1220 1211 1203 1195 1185 1173 1162 1148 1137 1129 1121
1371 1366 1362 1357 1352 1347 1341 1335 1328 1323 1317 1312 1306 1300 1294 1288 1281 1276 1271 1266 1260 1254 1248 1242 1238 1234 1229 1223 1215 1207 1200 1191 1182 1172 1159 1145 1135 1128
1368 1363 1359 1354 1349 1344 1338 1331 1325 1320 1315 1309 1303 1297 1291 1285 1280 1275 1270 1264 1259 1254 1249 1243 1238 1233 1228 1224 1218 1211 1204 1196 1188 1179 1170 1160 1153 1146
1365 1360 1356 1352 1347 1341 1334 1328 1323 1317 1312 1306 1300 1294 1289 1284 1279 1274 1269 1263 1258 1254 1249 1244 1239 1234 1230 1226 1221 1215 1209 1202 1194 1185 1178 1171 1165 1159